Terminal Aerodrome Forecast
Issued by NWS Houston/Galveston, TX

Home | Current Version | Previous Version | Text Only | Print | Product List | Glossary On
Versions: 1 2 3 4 5 6 7 8 9 10 11 12 13 14 15 16 17 18 19 20 21 22 23 24 25 26 27 28 29 30 31 32 33 34 35 36 37 38 39 40 41 42 43 44 45 46 47 48 49
871
FTUS44 KHGX 271143 RRB
TAFGLS
TAF
KGLS 271143Z 2712/2812 14016G21KT P6SM SCT015 BKN040
     FM271500 14018G23KT P6SM VCSH SCT025
     FM280300 16017KT P6SM SCT020 BKN120=

USA.gov is the U.S. government's official web portal to all federal, state and local government web resources and services.